Location: Montreal
(45.5087°N, 73.5540°W)
Time: 10:59:10
(UTC-04:00)

Tiangong 2 - Visible Passes

Search period start: 19 May 2019 00:00
Search period end: 29 May 2019 00:00
Orbit: 378 x 387 km, 42.8° (Epoch: 19 May)

Date Brightness Start Highest point End Pass type
(mag) Time Alt. Az. Time Alt. Az. Time Alt. Az.
19 May 3.2 20:58:22 10° SSE 20:59:26 11° SSE 21:00:28 10° SE visible
19 May 3.3 22:32:40 10° SW 22:33:23 15° SW 22:33:23 15° SW visible
20 May 2.2 21:33:02 10° SW 21:35:41 25° SSE 21:37:10 18° ESE visible
20 May 3.7 23:09:02 10° WSW 23:09:23 13° WSW 23:09:23 13° WSW visible
21 May 1.4 22:09:08 10° WSW 22:12:07 43° S 22:12:42 38° SE visible
22 May 1.8 21:09:19 10° SW 21:12:12 34° SSE 21:15:05 10° E visible
22 May 1.8 22:45:36 10° W 22:47:54 39° SW 22:47:54 39° SW visible
23 May 1.3 21:45:38 10° WSW 21:48:41 50° S 21:50:42 19° ESE visible
23 May 3.5 23:22:14 10° W 23:22:53 15° WSW 23:22:53 15° WSW visible
24 May 1.3 22:22:11 10° W 22:25:12 46° S 22:25:34 44° SSE visible
25 May 1.3 21:22:10 10° WSW 21:25:13 51° S 21:28:10 11° ESE visible
25 May 2.9 22:58:53 10° W 23:00:20 21° WSW 23:00:20 21° WSW visible
26 May 1.7 21:58:46 10° W 22:01:43 38° SSW 22:02:53 26° SE visible
27 May 2.9 22:35:38 10° WSW 22:37:34 20° SW 22:37:34 20° SW visible
28 May 2.2 21:35:22 10° W 21:38:08 29° SSW 21:40:05 16° SE visible
